Torna al catalogo

INTELSAT 33E DEB

AttivoMEO
NORAD 62004·DEBRIS· XX

Lanciato Aug 24, 2016 da Guiana Space Centre

Loading…

Prossimi Passaggi (prossime 24 ore)

TLE

AggiornatoSource: Space-Track

Epoca: Sep 13, 2026, 18:20 UTC

1 62004U 16053W   26256.76390761 -.00000058  00000-0  00000-0 0  9991
2 62004   2.7139 110.8078 0207761 283.4981  74.6690  1.02632655  7121

Traccia INTELSAT 33E DEB in tempo reale con AllMySat

Download on the App Store